{"data":{"norad_id":66056,"epoch":"2026-09-20T22:41:55.291776Z","epoch_age_seconds":101832,"freshness":"FRESH","line1":"1 66056U 25234D   26263.94577884  .00007287  00000+0  34149-3 0  9997","line2":"2 66056  97.4152 330.3853 0001943 118.2083 241.9349 15.19989867 51201","mean_motion":15.19989867,"eccentricity":0.0001943,"inclination_deg":97.4152,"raan_deg":330.3853,"arg_perigee_deg":118.2083,"mean_anomaly_deg":241.9349,"bstar":0.00034149,"rev_number":5120,"period_min":94.737473667645,"perigee_km":504.53364556672,"apogee_km":507.20877115649,"semimajor_km":6884.0082083616,"source":"CELESTRAK","updated_at":"2026-09-21T09:00:15.736939Z"}}